Showing default

PELICAN-7 300E, 69017

Orbit data source: Space-Track

PELICAN-7 300E, 69017 is a payload satellite owned by Planet (US) in SSO that was launched on Sun, 03 May 2026 UTC via an FALCON 9 launch vehicle from the Air Force Western Test Range (AFWTR). Payload-class satellites include a variety of spacecraft equipped with specific instruments for various scientific and technological missions. These include communications satellites like Starlink; space stations such as the ISS; scientific satellites like the Hubble; Earth observation satellites from companies like Planet Labs, Umbra, and HawkEye 360; GPS; miniature CubeSats for education and research; and military/defense satellites.

Loading next visibility...
Identifier
69017, 2026-100AP
Orbit
SSO
Country
Flag of USUS
Related business
Manufacturer
Planet
Mission
Operational Commercial Imaging
Bus & Motor
PELICAN, XE AOCS
Mass
160 kg wet, 146 kg dry
Launch date (UTC)
2026-05-03 (4 months ago)
Launch vehicle
FALCON 9
Launch site
Air Force Western Test Range (AFWTR)
Object type
Payload
Rocket body
Debris
Shape & HBR
Box + 2 Pan, 1.0 m
Radar Cross Section
1.955 m², Large (>1 m²)

Expand to show TLE details & history
Last TLE update: 14 hours ago

TLE from 14 hours ago
0 PELICAN-7 300E
1 69017U 26100AP  26237.75630605  .00003069  00000-0  12805-3 0  9991
2 69017  97.3674 134.5327 0001178  97.6650 262.4721 15.24416310 17409
Epoch: 2026-08-25T18:09Z
TLE epoch observation values (Epoch: 2026-08-25T18:09:04.842Z)
Latitude
-0.00008°
Longitude
-111.75655°
Altitude
495.742 km
Speed
7.617 km/s
True Right ascension
08h 58m 07s
True Declination
0° 00' 00"
Sunlit
Object was in daylight at epoch
Visualization orbit readout
Latitude
Unknown
Longitude
Unknown
Altitude
Unknown
Speed
Unknown
Apparent Right ascension
Unknown
Apparent Declination
Unknown
Sunlit
N/A
Visualization observer readout
Local Sidereal Time
23:17:33
Azimuth
Unknown
Elevation
Unknown
Doppler factor
Unknown
Orbital elements
Apogee altitude
490.306 km
Perigee altitude
488.688 km
Semi-major axis
6,867.634 km
Eccentricity
0.00012
Inclination
97.3674°
RAAN
134.5327°
Arg. of periapsis
97.665°
True anomaly
262.45872°
Mean anomaly
262.4721°
Eccentric anomaly
262.46541°
Mean motion
3.81358 °/min
Orbital period
94.4 mins
BSTAR
0.00012805
Loading maneuver chart data...
Computing Atmospheric mass density...
Loading historical data...
Loading historical data...
Loading historical data...
Loading historical data...
Loading historical data...
Loading historical data...
Loading historical data...

Documentation

Showing up to 5 results
|